Tracking 19638 objects as of 18-Apr-2019
HD Live streaming from Space Station
objects crossing your sky now

CBERS 1 DEB

Track CBERS 1 DEB now!
10-day predictions


NORAD ID: 37582
Int'l Code: 1999-057SX
Perigee: 647.1 km
Apogee: 662.4 km
Inclination: 98.3 °
Period: 97.7 minutes
Semi major axis: 7025 km
RCS: 0.0066 m2 (small)
Launch date: October 14, 1999
Source: China/Brazil (CHBZ)
Launch site: Taiyaun Space Center, China (TSC)

Note: This is SATELLITE DEBRIS
aabbcc
Your satellite tracking list
Your tracking list is empty




NASA's NSSDC Master Catalog

Two Line Element Set (TLE):
1 37582U 99057SX  19104.83134607  .00002586  00000-0  39910-3 0  9998
2 37582  98.3179 116.2560 0010907 129.7194 230.4977 14.74227153536535
Source of the keplerian elements: AFSPC